Location: Alto Pass Reservoir
(37.5801°N, 89.3084°W)
Time: 17:40:43
(UTC+00:00)

Cosmos 2298 Rocket - Pass Details

Date: 08 July 2022
Orbit: 775 x 784 km, 74.0° (Epoch: 18 August)

Event Time Altitude Azimuth Distance (km) Brightness Sun altitude
Rises 08:28:50 0° 342° (NNW) 3,279 7.8 -20.8°
Reaches altitude 10° 08:31:14 10° 343° (NNW) 2,347 7.0 -20.5°
Maximum altitude 08:36:35 83° 72° (ENE) 793 4.0 -19.9°
Enters shadow 08:41:06 15° 160° (SSE) 2,026 5.9 -19.3°
